HO-68 - Orbit

View from above orbital plane
View from above orbital plane
View from above satellite
View from above satellite

Ground track
Ground track

The orbit data is extracted from the following two-line orbital elements,

1 36122U 09072B   13138.71123518 -.00000044  00000-0  00000+0 0  5596
2 36122 100.3082 196.5056 0007935 061.6589 298.5318 13.16304284164538
Epoch (UTC): 18 May 2013 17:04:10
Eccentricity: 0.0007935
inclination: 100.3082°
perigee height: 1193 km
apogee height: 1205 km
right ascension of ascending node: 196.5056°
argument of perigee: 61.6589°
revolutions per day: 13.16304284
mean anomaly at epoch: 298.5318°
orbit number at epoch: 16453

The dashed part of the orbit path shows where the satellite is in the earth's shadow,  

Developed and maintained by Chris Peat, Heavens-Above GmbH. Please read the updated FAQ before sending e-mail. Imprint. DLR